Time,TemperatureF,DewpointF,PressureIn,WindDirection,WindDirectionDegrees,WindSpeedMPH,WindSpeedGustMPH,Humidity,HourlyPrecipIn,Conditions,Clouds,dailyrainin,SoftwareType,DateUTC
2016-02-06 00:01:00,62.2,34.9,30.30,West,278,0.0,2.0,36,0.00,,,0.00,VWS V14.01,2016-02-06 08:01:00,
2016-02-06 00:06:00,61.6,38.9,30.30,West,278,0.0,3.0,43,0.00,,,0.00,VWS V14.01,2016-02-06 08:06:00,
2016-02-06 00:11:00,60.7,38.1,30.30,West,278,0.0,3.0,43,0.00,,,0.00,VWS V14.01,2016-02-06 08:11:00,
2016-02-06 00:16:00,59.6,31.2,30.30,West,278,0.0,3.0,34,0.00,,,0.00,VWS V14.01,2016-02-06 08:16:00,
2016-02-06 00:21:00,59.1,29.3,30.30,West,278,0.0,0.0,32,0.00,,,0.00,VWS V14.01,2016-02-06 08:21:00,
2016-02-06 00:26:00,59.0,30.0,30.30,West,278,0.0,0.0,33,0.00,,,0.00,VWS V14.01,2016-02-06 08:26:00,
2016-02-06 00:31:00,58.6,29.6,30.30,West,278,0.0,0.0,33,0.00,,,0.00,VWS V14.01,2016-02-06 08:31:00,
2016-02-06 00:36:00,58.2,30.0,30.29,West,278,0.0,0.0,34,0.00,,,0.00,VWS V14.01,2016-02-06 08:36:00,
2016-02-06 00:41:00,57.4,29.3,30.29,West,278,0.0,0.0,34,0.00,,,0.00,VWS V14.01,2016-02-06 08:41:00,
2016-02-06 00:46:00,56.8,28.8,30.29,West,278,0.0,0.0,34,0.00,,,0.00,VWS V14.01,2016-02-06 08:46:00,
2016-02-06 00:51:00,56.9,28.8,30.28,West,278,0.0,0.0,34,0.00,,,0.00,VWS V14.01,2016-02-06 08:51:00,
2016-02-06 00:56:00,57.1,28.3,30.29,West,278,0.0,0.0,33,0.00,,,0.00,VWS V14.01,2016-02-06 08:56:00,
2016-02-06 01:01:00,57.1,28.3,30.29,West,278,0.0,0.0,33,0.00,,,0.00,VWS V14.01,2016-02-06 09:01:00,
2016-02-06 01:06:00,57.1,31.1,30.29,West,278,0.0,0.0,37,0.00,,,0.00,VWS V14.01,2016-02-06 09:06:00,
2016-02-06 01:11:00,56.7,29.4,30.29,West,278,0.0,0.0,35,0.00,,,0.00,VWS V14.01,2016-02-06 09:11:00,
2016-02-06 01:16:00,56.4,28.4,30.29,West,278,0.0,0.0,34,0.00,,,0.00,VWS V14.01,2016-02-06 09:16:00,
2016-02-06 01:21:00,56.7,27.9,30.29,West,278,0.0,0.0,33,0.00,,,0.00,VWS V14.01,2016-02-06 09:21:00,
2016-02-06 01:26:00,57.1,28.3,30.30,West,278,0.0,0.0,33,0.00,,,0.00,VWS V14.01,2016-02-06 09:26:00,
2016-02-06 01:31:00,57.3,29.9,30.30,West,278,0.0,0.0,35,0.00,,,0.00,VWS V14.01,2016-02-06 09:31:00,
2016-02-06 01:36:00,57.2,30.5,30.30,West,278,0.0,0.0,36,0.00,,,0.00,VWS V14.01,2016-02-06 09:36:00,
2016-02-06 01:41:00,56.6,30.6,30.30,West,278,0.0,0.0,37,0.00,,,0.00,VWS V14.01,2016-02-06 09:41:00,
2016-02-06 01:46:00,55.8,29.9,30.30,West,278,0.0,0.0,37,0.00,,,0.00,VWS V14.01,2016-02-06 09:46:00,
2016-02-06 01:51:00,55.3,28.8,30.30,West,278,0.0,0.0,36,0.00,,,0.00,VWS V14.01,2016-02-06 09:51:00,
2016-02-06 01:56:00,55.3,28.1,30.30,West,278,0.0,0.0,35,0.00,,,0.00,VWS V14.01,2016-02-06 09:56:00,
2016-02-06 02:01:00,55.4,28.2,30.30,West,278,0.0,0.0,35,0.00,,,0.00,VWS V14.01,2016-02-06 10:01:00,
2016-02-06 02:06:00,55.6,29.1,30.30,West,278,0.0,0.0,36,0.00,,,0.00,VWS V14.01,2016-02-06 10:06:00,
2016-02-06 02:11:00,55.7,29.9,30.30,West,278,0.0,0.0,37,0.00,,,0.00,VWS V14.01,2016-02-06 10:11:00,
2016-02-06 02:16:00,55.3,28.8,30.30,West,278,0.0,0.0,36,0.00,,,0.00,VWS V14.01,2016-02-06 10:16:00,
2016-02-06 02:21:00,54.9,29.1,30.30,West,278,0.0,0.0,37,0.00,,,0.00,VWS V14.01,2016-02-06 10:21:00,
2016-02-06 02:26:00,54.8,29.7,30.29,West,278,0.0,0.0,38,0.00,,,0.00,VWS V14.01,2016-02-06 10:26:00,
2016-02-06 02:31:00,54.7,29.0,30.29,West,278,0.0,0.0,37,0.00,,,0.00,VWS V14.01,2016-02-06 10:31:00,
2016-02-06 02:36:00,54.7,29.0,30.29,West,278,0.0,0.0,37,0.00,,,0.00,VWS V14.01,2016-02-06 10:36:00,
2016-02-06 02:41:00,54.7,29.0,30.29,West,278,0.0,0.0,37,0.00,,,0.00,VWS V14.01,2016-02-06 10:41:00,
2016-02-06 02:46:00,54.6,29.5,30.29,West,278,0.0,0.0,38,0.00,,,0.00,VWS V14.01,2016-02-06 10:46:00,
2016-02-06 02:51:00,54.4,28.7,30.29,West,278,0.0,0.0,37,0.00,,,0.00,VWS V14.01,2016-02-06 10:51:00,
2016-02-06 02:56:00,54.4,28.7,30.29,West,278,0.0,0.0,37,0.00,,,0.00,VWS V14.01,2016-02-06 10:56:00,
2016-02-06 03:01:00,54.6,28.2,30.29,West,278,0.0,0.0,36,0.00,,,0.00,VWS V14.01,2016-02-06 11:01:00,
2016-02-06 03:06:00,54.6,28.2,30.29,West,278,0.0,0.0,36,0.00,,,0.00,VWS V14.01,2016-02-06 11:06:00,
2016-02-06 03:11:00,54.8,28.4,30.29,West,278,0.0,0.0,36,0.00,,,0.00,VWS V14.01,2016-02-06 11:11:00,
2016-02-06 03:16:00,54.7,29.0,30.29,West,278,0.0,0.0,37,0.00,,,0.00,VWS V14.01,2016-02-06 11:16:00,
2016-02-06 03:21:00,54.6,28.9,30.28,West,278,0.0,0.0,37,0.00,,,0.00,VWS V14.01,2016-02-06 11:21:00,
2016-02-06 03:26:00,54.5,28.8,30.29,West,278,0.0,0.0,37,0.00,,,0.00,VWS V14.01,2016-02-06 11:26:00,
2016-02-06 03:31:00,54.5,29.4,30.28,West,278,0.0,0.0,38,0.00,,,0.00,VWS V14.01,2016-02-06 11:31:00,
2016-02-06 03:36:00,54.3,29.2,30.28,West,278,0.0,0.0,38,0.00,,,0.00,VWS V14.01,2016-02-06 11:36:00,
2016-02-06 03:41:00,54.3,29.2,30.28,West,278,0.0,0.0,38,0.00,,,0.00,VWS V14.01,2016-02-06 11:41:00,
2016-02-06 03:46:00,54.3,28.6,30.28,West,278,0.0,0.0,37,0.00,,,0.00,VWS V14.01,2016-02-06 11:46:00,
2016-02-06 03:51:00,54.3,28.6,30.28,West,278,0.0,0.0,37,0.00,,,0.00,VWS V14.01,2016-02-06 11:51:00,
2016-02-06 03:56:00,54.2,29.2,30.28,West,278,0.0,0.0,38,0.00,,,0.00,VWS V14.01,2016-02-06 11:56:00,
2016-02-06 04:01:00,54.0,29.0,30.29,West,278,0.0,0.0,38,0.00,,,0.00,VWS V14.01,2016-02-06 12:01:00,
2016-02-06 04:06:00,53.8,28.8,30.29,West,278,0.0,0.0,38,0.00,,,0.00,VWS V14.01,2016-02-06 12:06:00,
2016-02-06 04:11:00,53.7,28.1,30.29,West,278,0.0,0.0,37,0.00,,,0.00,VWS V14.01,2016-02-06 12:11:00,
2016-02-06 04:16:00,53.8,28.2,30.29,West,278,0.0,0.0,37,0.00,,,0.00,VWS V14.01,2016-02-06 12:16:00,
2016-02-06 04:21:00,53.8,28.8,30.29,West,278,0.0,0.0,38,0.00,,,0.00,VWS V14.01,2016-02-06 12:21:00,
2016-02-06 04:26:00,53.7,28.1,30.29,West,278,0.0,0.0,37,0.00,,,0.00,VWS V14.01,2016-02-06 12:26:00,
2016-02-06 04:31:00,53.7,28.1,30.29,West,278,0.0,0.0,37,0.00,,,0.00,VWS V14.01,2016-02-06 12:31:00,
2016-02-06 04:36:00,53.7,28.1,30.29,West,278,0.0,0.0,37,0.00,,,0.00,VWS V14.01,2016-02-06 12:36:00,
2016-02-06 04:41:00,53.8,28.2,30.29,West,278,0.0,0.0,37,0.00,,,0.00,VWS V14.01,2016-02-06 12:41:00,
2016-02-06 04:46:00,53.8,28.2,30.29,West,278,0.0,0.0,37,0.00,,,0.00,VWS V14.01,2016-02-06 12:46:00,
2016-02-06 04:51:00,53.9,28.2,30.28,West,278,0.0,0.0,37,0.00,,,0.00,VWS V14.01,2016-02-06 12:51:00,
2016-02-06 04:56:00,53.9,28.2,30.28,West,278,0.0,0.0,37,0.00,,,0.00,VWS V14.01,2016-02-06 12:56:00,
2016-02-06 05:01:00,53.9,28.2,30.28,West,278,0.0,0.0,37,0.00,,,0.00,VWS V14.01,2016-02-06 13:01:00,
2016-02-06 05:06:00,53.7,28.7,30.27,West,278,0.0,0.0,38,0.00,,,0.00,VWS V14.01,2016-02-06 13:06:00,
2016-02-06 05:11:00,53.4,28.5,30.27,West,278,0.0,0.0,38,0.00,,,0.00,VWS V14.01,2016-02-06 13:11:00,
2016-02-06 05:16:00,53.1,28.8,30.27,West,278,0.0,0.0,39,0.00,,,0.00,VWS V14.01,2016-02-06 13:16:00,
2016-02-06 05:21:00,52.8,29.2,30.27,West,278,0.0,0.0,40,0.00,,,0.00,VWS V14.01,2016-02-06 13:21:00,
2016-02-06 05:26:00,52.6,28.4,30.27,West,278,0.0,0.0,39,0.00,,,0.00,VWS V14.01,2016-02-06 13:26:00,
2016-02-06 05:31:00,52.6,28.4,30.27,West,278,0.0,0.0,39,0.00,,,0.00,VWS V14.01,2016-02-06 13:31:00,
2016-02-06 05:36:00,52.6,28.4,30.27,West,278,0.0,0.0,39,0.00,,,0.00,VWS V14.01,2016-02-06 13:36:00,
2016-02-06 05:41:00,52.6,29.0,30.27,West,278,0.0,0.0,40,0.00,,,0.00,VWS V14.01,2016-02-06 13:41:00,
2016-02-06 05:46:00,52.5,28.9,30.27,West,278,0.0,0.0,40,0.00,,,0.00,VWS V14.01,2016-02-06 13:46:00,
2016-02-06 05:51:00,52.4,28.2,30.27,West,278,0.0,0.0,39,0.00,,,0.00,VWS V14.01,2016-02-06 13:51:00,
2016-02-06 06:01:00,52.4,28.8,30.27,West,278,0.0,0.0,40,0.00,,,0.00,VWS V14.01,2016-02-06 14:01:00,
2016-02-06 06:06:00,52.4,28.8,30.27,West,278,0.0,0.0,40,0.00,,,0.00,VWS V14.01,2016-02-06 14:06:00,
2016-02-06 06:16:00,52.1,28.5,30.27,West,278,0.0,0.0,40,0.00,,,0.00,VWS V14.01,2016-02-06 14:16:00,
2016-02-06 06:26:00,52.8,28.5,30.27,East,90,0.0,3.0,39,0.00,,,0.00,VWS V14.01,2016-02-06 14:26:00,
2016-02-06 06:36:00,52.8,27.9,30.27,East,90,0.0,0.0,38,0.00,,,0.00,VWS V14.01,2016-02-06 14:36:00,